Time,TemperatureF,DewpointF,PressureIn,WindDirection,WindDirectionDegrees,WindSpeedMPH,WindSpeedGustMPH,Humidity,HourlyPrecipIn,Conditions,Clouds,dailyrainin,SoftwareType,DateUTC
2013-08-04 00:00:00,72.8,71.3,29.98,SW,233,0.0,0.0,95,0.00,,---,0.00,VWS V14.01,2013-08-04 04:00:00,
2013-08-04 00:01:00,73.1,70.3,29.99,NW,304,0.0,0.0,91,0.00,,---,0.00,VWS V14.01,2013-08-04 04:01:00,
2013-08-04 00:05:00,72.6,71.4,29.98,SW,233,0.0,0.0,96,0.00,,---,0.00,VWS V14.01,2013-08-04 04:05:00,
2013-08-04 00:06:00,73.3,70.2,30.00,WSW,252,0.0,2.0,90,0.00,,---,0.00,VWS V14.01,2013-08-04 04:06:00,
2013-08-04 00:10:00,72.4,71.2,29.98,SW,233,0.0,0.0,96,0.00,,---,0.00,VWS V14.01,2013-08-04 04:10:00,
2013-08-04 00:12:00,73.9,70.1,29.99,West,268,3.0,12.0,88,0.00,,---,0.00,VWS V14.01,2013-08-04 04:12:00,
2013-08-04 00:15:00,72.2,71.0,29.98,SW,233,0.0,0.0,96,0.00,,---,0.00,VWS V14.01,2013-08-04 04:15:00,
2013-08-04 00:17:00,74.5,70.4,29.99,NW,315,0.0,3.0,87,0.00,,---,0.00,VWS V14.01,2013-08-04 04:17:00,
2013-08-04 00:20:00,72.1,70.9,29.99,SW,233,0.0,0.0,96,0.00,,---,0.00,VWS V14.01,2013-08-04 04:20:00,
2013-08-04 00:22:00,74.5,70.0,29.99,NW,317,2.0,4.0,86,0.00,,---,0.00,VWS V14.01,2013-08-04 04:22:00,
2013-08-04 00:25:00,71.9,70.7,29.99,SW,233,0.0,0.0,96,0.00,,---,0.00,VWS V14.01,2013-08-04 04:25:00,
2013-08-04 00:27:00,74.4,69.9,29.99,WSW,248,0.0,3.0,86,0.00,,---,0.00,VWS V14.01,2013-08-04 04:27:00,
2013-08-04 00:30:00,71.8,70.9,29.99,SW,233,0.0,0.0,97,0.00,,---,0.00,VWS V14.01,2013-08-04 04:30:00,
2013-08-04 00:32:00,74.0,69.9,29.99,ENE,77,0.0,3.0,87,0.00,,---,0.00,VWS V14.01,2013-08-04 04:32:00,
2013-08-04 00:35:00,71.7,70.8,29.99,SW,233,0.0,0.0,97,0.00,,---,0.00,VWS V14.01,2013-08-04 04:35:00,
2013-08-04 00:37:00,73.5,69.7,29.99,East,98,0.0,1.0,88,0.00,,---,0.00,VWS V14.01,2013-08-04 04:37:00,
2013-08-04 00:40:00,71.5,70.6,29.99,SW,233,0.0,0.0,97,0.00,,---,0.00,VWS V14.01,2013-08-04 04:40:00,
2013-08-04 00:42:00,73.5,69.7,29.99,SSE,147,1.0,1.0,88,0.00,,---,0.00,VWS V14.01,2013-08-04 04:42:00,
2013-08-04 00:45:00,71.5,70.0,29.99,West,273,1.0,2.0,95,0.00,,---,0.00,VWS V14.01,2013-08-04 04:45:00,
2013-08-04 00:47:00,73.3,70.2,29.99,ENE,71,0.0,1.0,90,0.00,,---,0.00,VWS V14.01,2013-08-04 04:47:00,
2013-08-04 00:50:00,71.9,70.4,29.99,NE,53,0.0,1.0,95,0.00,,---,0.00,VWS V14.01,2013-08-04 04:50:00,
2013-08-04 00:52:00,72.8,69.7,29.99,ENE,71,0.0,0.0,90,0.00,,---,0.00,VWS V14.01,2013-08-04 04:52:00,
2013-08-04 00:55:00,71.8,70.3,30.00,North,358,1.0,1.0,95,0.00,,---,0.00,VWS V14.01,2013-08-04 04:55:00,
2013-08-04 00:57:00,72.6,69.8,29.99,ENE,71,0.0,1.0,91,0.00,,---,0.00,VWS V14.01,2013-08-04 04:57:00,
2013-08-04 01:00:00,72.9,70.1,29.99,NW,320,0.0,6.0,91,0.00,,---,0.00,VWS V14.01,2013-08-04 05:00:00,
2013-08-04 01:02:00,72.4,69.6,29.99,ENE,72,0.0,1.0,91,0.00,,---,0.00,VWS V14.01,2013-08-04 05:02:00,
2013-08-04 01:05:00,73.4,70.6,30.00,NW,314,0.0,1.0,91,0.00,,---,0.00,VWS V14.01,2013-08-04 05:05:00,
2013-08-04 01:07:00,72.1,69.3,29.99,South,184,0.0,1.0,91,0.00,,---,0.00,VWS V14.01,2013-08-04 05:07:00,
2013-08-04 01:10:00,73.4,70.0,30.00,WSW,257,2.0,5.0,89,0.00,,---,0.00,VWS V14.01,2013-08-04 05:10:00,
2013-08-04 01:12:00,72.4,69.6,29.99,NW,312,0.0,0.0,91,0.00,,---,0.00,VWS V14.01,2013-08-04 05:12:00,
2013-08-04 01:15:00,74.4,70.3,29.99,West,275,1.0,12.0,87,0.00,,---,0.00,VWS V14.01,2013-08-04 05:15:00,
2013-08-04 01:17:00,72.8,69.4,29.98,WNW,294,4.0,4.0,89,0.00,,---,0.00,VWS V14.01,2013-08-04 05:17:00,
2013-08-04 01:20:00,74.5,70.0,29.99,WNW,290,2.0,3.0,86,0.00,,---,0.00,VWS V14.01,2013-08-04 05:20:00,
2013-08-04 01:22:00,73.6,69.5,29.98,SW,236,0.0,2.0,87,0.00,,---,0.00,VWS V14.01,2013-08-04 05:22:00,
2013-08-04 01:25:00,74.6,70.1,29.99,WNW,290,0.0,5.0,86,0.00,,---,0.00,VWS V14.01,2013-08-04 05:25:00,
2013-08-04 01:27:00,73.5,69.7,29.98,SW,236,0.0,1.0,88,0.00,,---,0.00,VWS V14.01,2013-08-04 05:27:00,
2013-08-04 01:30:00,74.2,70.1,29.99,East,84,0.0,3.0,87,0.00,,---,0.00,VWS V14.01,2013-08-04 05:30:00,
2013-08-04 01:32:00,73.0,69.6,29.98,SW,236,0.0,0.0,89,0.00,,---,0.00,VWS V14.01,2013-08-04 05:32:00,
2013-08-04 01:35:00,73.7,69.9,29.99,ENE,67,1.0,3.0,88,0.00,,---,0.00,VWS V14.01,2013-08-04 05:35:00,
2013-08-04 01:37:00,72.5,69.4,29.98,SW,236,0.0,1.0,90,0.00,,---,0.00,VWS V14.01,2013-08-04 05:37:00,
2013-08-04 01:40:00,73.6,69.8,29.99,East,79,0.0,2.0,88,0.00,,---,0.00,VWS V14.01,2013-08-04 05:40:00,
2013-08-04 01:42:00,72.0,69.2,29.98,SW,236,0.0,0.0,91,0.00,,---,0.00,VWS V14.01,2013-08-04 05:42:00,
2013-08-04 01:45:00,73.5,70.1,29.99,SSE,151,0.0,1.0,89,0.00,,---,0.00,VWS V14.01,2013-08-04 05:45:00,
2013-08-04 01:47:00,71.7,69.3,29.98,SW,236,0.0,0.0,92,0.00,,---,0.00,VWS V14.01,2013-08-04 05:47:00,
2013-08-04 01:50:00,73.0,69.9,29.99,ENE,71,0.0,1.0,90,0.00,,---,0.00,VWS V14.01,2013-08-04 05:50:00,
2013-08-04 01:52:00,71.1,69.0,29.98,SW,236,0.0,0.0,93,0.00,,---,0.00,VWS V14.01,2013-08-04 05:52:00,
2013-08-04 01:55:00,72.7,69.6,29.99,ENE,71,0.0,0.0,90,0.00,,---,0.00,VWS V14.01,2013-08-04 05:55:00,
2013-08-04 01:57:00,70.7,68.9,29.98,SW,236,0.0,0.0,94,0.00,,---,0.00,VWS V14.01,2013-08-04 05:57:00,
2013-08-04 02:00:00,72.5,69.7,29.99,ENE,72,0.0,1.0,91,0.00,,---,0.00,VWS V14.01,2013-08-04 06:00:00,
2013-08-04 02:02:00,70.5,68.7,29.98,SW,236,0.0,1.0,94,0.00,,---,0.00,VWS V14.01,2013-08-04 06:02:00,
2013-08-04 02:05:00,72.3,69.5,29.99,ENE,72,0.0,1.0,91,0.00,,---,0.00,VWS V14.01,2013-08-04 06:05:00,
2013-08-04 02:07:00,70.3,68.5,29.98,SW,236,0.0,1.0,94,0.00,,---,0.00,VWS V14.01,2013-08-04 06:07:00,
2013-08-04 02:10:00,72.2,69.4,29.99,WSW,258,0.0,2.0,91,0.00,,---,0.00,VWS V14.01,2013-08-04 06:10:00,
2013-08-04 02:12:00,70.1,68.3,29.98,SW,236,0.0,0.0,94,0.00,,---,0.00,VWS V14.01,2013-08-04 06:12:00,
2013-08-04 02:15:00,72.4,69.3,29.98,West,259,1.0,1.0,90,0.00,,---,0.00,VWS V14.01,2013-08-04 06:15:00,
2013-08-04 02:17:00,69.9,68.4,29.98,SW,236,0.0,0.0,95,0.00,,---,0.00,VWS V14.01,2013-08-04 06:17:00,
2013-08-04 02:20:00,73.4,69.6,29.98,WNW,287,1.0,5.0,88,0.00,,---,0.00,VWS V14.01,2013-08-04 06:20:00,
2013-08-04 02:22:00,69.7,68.2,29.98,SW,235,0.0,0.0,95,0.00,,---,0.00,VWS V14.01,2013-08-04 06:22:00,
2013-08-04 02:25:00,73.7,69.9,29.98,SW,236,0.0,2.0,88,0.00,,---,0.00,VWS V14.01,2013-08-04 06:25:00,
2013-08-04 02:27:00,69.5,68.3,29.98,SW,236,0.0,0.0,96,0.00,,---,0.00,VWS V14.01,2013-08-04 06:27:00,
2013-08-04 02:30:00,73.3,69.5,29.98,SW,236,0.0,1.0,88,0.00,,---,0.00,VWS V14.01,2013-08-04 06:30:00,
2013-08-04 02:32:00,69.4,68.5,29.98,SW,236,0.0,1.0,97,0.00,,---,0.00,VWS V14.01,2013-08-04 06:32:00,
2013-08-04 02:35:00,72.8,69.4,29.98,SW,235,0.0,0.0,89,0.00,,---,0.00,VWS V14.01,2013-08-04 06:35:00,
2013-08-04 02:37:00,69.3,68.1,29.98,SW,236,0.0,0.0,96,0.00,,---,0.00,VWS V14.01,2013-08-04 06:37:00,
2013-08-04 02:40:00,72.2,69.4,29.98,SW,236,0.0,1.0,91,0.00,,---,0.00,VWS V14.01,2013-08-04 06:40:00,
2013-08-04 02:43:00,69.1,67.9,29.98,SW,236,0.0,0.0,96,0.00,,---,0.00,VWS V14.01,2013-08-04 06:43:00,
2013-08-04 02:45:00,71.9,69.4,29.98,SW,236,0.0,0.0,92,0.00,,---,0.00,VWS V14.01,2013-08-04 06:45:00,
2013-08-04 02:47:00,68.9,67.7,29.97,SW,236,0.0,1.0,96,0.00,,---,0.00,VWS V14.01,2013-08-04 06:47:00,
2013-08-04 02:50:00,71.4,69.0,29.98,SW,236,0.0,0.0,92,0.00,,---,0.00,VWS V14.01,2013-08-04 06:50:00,
2013-08-04 02:53:00,68.7,67.8,29.97,SW,236,0.0,1.0,97,0.00,,---,0.00,VWS V14.01,2013-08-04 06:53:00,
2013-08-04 02:55:00,70.9,68.8,29.98,SW,236,0.0,0.0,93,0.00,,---,0.00,VWS V14.01,2013-08-04 06:55:00,
2013-08-04 02:58:00,68.8,68.2,29.98,SW,236,0.0,1.0,98,0.00,,---,0.00,VWS V14.01,2013-08-04 06:58:00,
2013-08-04 03:00:00,70.6,68.8,29.98,SW,236,0.0,0.0,94,0.00,,---,0.00,VWS V14.01,2013-08-04 07:00:00,
2013-08-04 03:03:00,68.8,67.9,29.97,ESE,108,0.0,1.0,97,0.00,,---,0.00,VWS V14.01,2013-08-04 07:03:00,
2013-08-04 03:05:00,70.4,68.6,29.98,SW,236,0.0,1.0,94,0.00,,---,0.00,VWS V14.01,2013-08-04 07:05:00,
2013-08-04 03:08:00,68.7,67.8,29.97,ESE,108,0.0,0.0,97,0.00,,---,0.00,VWS V14.01,2013-08-04 07:08:00,
2013-08-04 03:10:00,70.2,68.7,29.98,SW,236,0.0,1.0,95,0.00,,---,0.00,VWS V14.01,2013-08-04 07:10:00,
2013-08-04 03:13:00,68.7,67.8,29.97,ESE,108,0.0,1.0,97,0.00,,---,0.00,VWS V14.01,2013-08-04 07:13:00,
2013-08-04 03:15:00,70.0,68.5,29.98,SW,236,0.0,0.0,95,0.00,,---,0.00,VWS V14.01,2013-08-04 07:15:00,
2013-08-04 03:18:00,69.0,68.4,29.97,ESE,108,0.0,1.0,98,0.00,,---,0.00,VWS V14.01,2013-08-04 07:18:00,
2013-08-04 03:20:00,69.8,68.3,29.98,SW,236,0.0,0.0,95,0.00,,---,0.00,VWS V14.01,2013-08-04 07:20:00,
2013-08-04 03:22:00,69.1,68.2,29.97,ESE,108,0.0,0.0,97,0.00,,---,0.00,VWS V14.01,2013-08-04 07:22:00,
2013-08-04 03:25:00,69.6,68.4,29.98,SW,235,0.0,0.0,96,0.00,,---,0.00,VWS V14.01,2013-08-04 07:25:00,
2013-08-04 03:28:00,69.0,68.1,29.98,ESE,108,0.0,1.0,97,0.00,,---,0.00,VWS V14.01,2013-08-04 07:28:00,
2013-08-04 03:30:00,69.5,68.3,29.98,SW,236,0.0,0.0,96,0.00,,---,0.00,VWS V14.01,2013-08-04 07:30:00,
2013-08-04 03:33:00,68.9,68.0,29.98,ESE,108,0.0,1.0,97,0.00,,---,0.00,VWS V14.01,2013-08-04 07:33:00,
2013-08-04 03:35:00,69.4,68.2,29.98,SW,236,0.0,1.0,96,0.00,,---,0.00,VWS V14.01,2013-08-04 07:35:00,
2013-08-04 03:37:00,68.9,68.0,29.97,SE,142,0.0,1.0,97,0.00,,---,0.00,VWS V14.01,2013-08-04 07:37:00,
2013-08-04 03:40:00,69.2,68.0,29.98,SW,236,0.0,0.0,96,0.00,,---,0.00,VWS V14.01,2013-08-04 07:40:00,
2013-08-04 03:43:00,69.2,68.3,29.97,SE,142,0.0,1.0,97,0.00,,---,0.00,VWS V14.01,2013-08-04 07:43:00,
2013-08-04 03:45:00,69.0,68.1,29.98,SW,236,0.0,0.0,97,0.00,,---,0.00,VWS V14.01,2013-08-04 07:45:00,
2013-08-04 03:48:00,69.4,68.5,29.97,SE,142,0.0,1.0,97,0.00,,---,0.00,VWS V14.01,2013-08-04 07:48:00,
2013-08-04 03:50:00,68.8,67.6,29.97,SW,236,0.0,1.0,96,0.00,,---,0.00,VWS V14.01,2013-08-04 07:50:00,
2013-08-04 03:52:00,69.7,68.5,29.96,East,96,1.0,1.0,96,0.00,,---,0.00,VWS V14.01,2013-08-04 07:52:00,
2013-08-04 03:55:00,68.7,67.8,29.97,SW,236,0.0,1.0,97,0.00,,---,0.00,VWS V14.01,2013-08-04 07:55:00,
2013-08-04 03:58:00,69.7,68.5,29.97,East,96,0.0,1.0,96,0.00,,---,0.00,VWS V14.01,2013-08-04 07:58:00,
2013-08-04 04:00:00,68.9,68.3,29.97,SW,235,0.0,1.0,98,0.00,,---,0.00,VWS V14.01,2013-08-04 08:00:00,
2013-08-04 04:02:00,69.5,68.3,29.97,East,96,0.0,0.0,96,0.00,,---,0.00,VWS V14.01,2013-08-04 08:02:00,
2013-08-04 04:05:00,68.8,67.9,29.97,ESE,108,0.0,1.0,97,0.00,,---,0.00,VWS V14.01,2013-08-04 08:05:00,
2013-08-04 04:08:00,69.5,68.3,29.97,WSW,249,0.0,1.0,96,0.00,,---,0.00,VWS V14.01,2013-08-04 08:08:00,
2013-08-04 04:10:00,68.7,67.8,29.97,ESE,108,0.0,1.0,97,0.00,,---,0.00,VWS V14.01,2013-08-04 08:10:00,
2013-08-04 04:13:00,69.3,68.1,29.97,WSW,250,0.0,0.0,96,0.00,,---,0.00,VWS V14.01,2013-08-04 08:13:00,
2013-08-04 04:15:00,68.8,68.2,29.97,ESE,108,0.0,1.0,98,0.00,,---,0.00,VWS V14.01,2013-08-04 08:15:00,
2013-08-04 04:18:00,69.1,67.9,29.98,SE,146,0.0,1.0,96,0.00,,---,0.00,VWS V14.01,2013-08-04 08:18:00,
2013-08-04 04:20:00,69.1,68.5,29.97,ESE,108,0.0,1.0,98,0.00,,---,0.00,VWS V14.01,2013-08-04 08:20:00,
2013-08-04 04:23:00,69.0,68.1,29.98,SSE,147,0.0,0.0,97,0.00,,---,0.00,VWS V14.01,2013-08-04 08:23:00,
2013-08-04 04:25:00,69.1,68.2,29.97,ESE,108,0.0,1.0,97,0.00,,---,0.00,VWS V14.01,2013-08-04 08:25:00,
2013-08-04 04:28:00,69.1,68.2,29.98,SSE,147,0.0,1.0,97,0.00,,---,0.00,VWS V14.01,2013-08-04 08:28:00,
2013-08-04 04:30:00,68.9,68.0,29.98,ESE,108,0.0,1.0,97,0.00,,---,0.00,VWS V14.01,2013-08-04 08:30:00,
2013-08-04 04:33:00,69.0,68.1,29.98,SSE,147,0.0,0.0,97,0.00,,---,0.00,VWS V14.01,2013-08-04 08:33:00,
2013-08-04 04:35:00,68.9,68.3,29.98,ESE,108,0.0,1.0,98,0.00,,---,0.00,VWS V14.01,2013-08-04 08:35:00,
2013-08-04 04:38:00,68.9,68.0,29.98,SSE,147,0.0,0.0,97,0.00,,---,0.00,VWS V14.01,2013-08-04 08:38:00,
2013-08-04 04:40:00,69.1,68.2,29.97,SE,143,0.0,1.0,97,0.00,,---,0.00,VWS V14.01,2013-08-04 08:40:00,
2013-08-04 04:43:00,68.9,68.0,29.98,SSE,147,0.0,0.0,97,0.00,,---,0.00,VWS V14.01,2013-08-04 08:43:00,
2013-08-04 04:45:00,69.3,68.4,29.97,SE,142,0.0,1.0,97,0.00,,---,0.00,VWS V14.01,2013-08-04 08:45:00,
2013-08-04 04:48:00,69.0,68.1,29.98,SSE,147,0.0,0.0,97,0.00,,---,0.00,VWS V14.01,2013-08-04 08:48:00,
2013-08-04 04:50:00,69.5,68.6,29.97,SE,142,0.0,1.0,97,0.00,,---,0.00,VWS V14.01,2013-08-04 08:50:00,
2013-08-04 04:53:00,69.0,68.1,29.98,SSE,147,0.0,0.0,97,0.00,,---,0.00,VWS V14.01,2013-08-04 08:53:00,
2013-08-04 04:55:00,69.8,68.6,29.96,East,96,0.0,1.0,96,0.00,,---,0.00,VWS V14.01,2013-08-04 08:55:00,
2013-08-04 04:58:00,69.2,68.6,29.98,SSE,147,0.0,0.0,98,0.00,,---,0.00,VWS V14.01,2013-08-04 08:58:00,
2013-08-04 05:00:00,69.6,68.4,29.97,East,96,0.0,1.0,96,0.00,,---,0.00,VWS V14.01,2013-08-04 09:00:00,
2013-08-04 05:03:00,69.3,68.7,29.98,SSE,147,0.0,0.0,98,0.00,,---,0.00,VWS V14.01,2013-08-04 09:03:00,
2013-08-04 05:05:00,69.4,68.2,29.97,NW,311,0.0,2.0,96,0.00,,---,0.00,VWS V14.01,2013-08-04 09:05:00,
2013-08-04 05:08:00,69.4,68.5,29.98,ESE,118,0.0,1.0,97,0.00,,---,0.00,VWS V14.01,2013-08-04 09:08:00,
2013-08-04 05:10:00,69.5,68.3,29.97,WSW,250,0.0,1.0,96,0.00,,---,0.00,VWS V14.01,2013-08-04 09:10:00,
2013-08-04 05:13:00,69.6,68.7,29.98,ESE,118,0.0,0.0,97,0.00,,---,0.00,VWS V14.01,2013-08-04 09:13:00,
2013-08-04 05:15:00,69.2,68.0,29.98,WSW,250,0.0,0.0,96,0.00,,---,0.00,VWS V14.01,2013-08-04 09:15:00,
2013-08-04 05:18:00,69.7,68.8,29.98,ESE,119,0.0,0.0,97,0.00,,---,0.00,VWS V14.01,2013-08-04 09:18:00,
2013-08-04 05:20:00,69.1,68.2,29.97,SSE,147,0.0,1.0,97,0.00,,---,0.00,VWS V14.01,2013-08-04 09:20:00,
2013-08-04 05:23:00,69.8,68.9,29.98,ESE,118,0.0,0.0,97,0.00,,---,0.00,VWS V14.01,2013-08-04 09:23:00,
2013-08-04 05:25:00,69.1,68.2,29.98,SSE,147,0.0,0.0,97,0.00,,---,0.00,VWS V14.01,2013-08-04 09:25:00,
2013-08-04 05:28:00,69.9,69.0,29.98,ESE,119,0.0,0.0,97,0.00,,---,0.00,VWS V14.01,2013-08-04 09:28:00,
2013-08-04 05:30:00,69.0,67.8,29.98,SSE,147,0.0,1.0,96,0.00,,---,0.00,VWS V14.01,2013-08-04 09:30:00,
2013-08-04 05:33:00,70.0,69.1,29.98,ESE,118,0.0,0.0,97,0.00,,---,0.00,VWS V14.01,2013-08-04 09:33:00,
2013-08-04 05:35:00,69.0,68.1,29.98,SSE,147,0.0,0.0,97,0.00,,---,0.00,VWS V14.01,2013-08-04 09:35:00,
2013-08-04 05:38:00,70.1,69.2,29.98,ESE,119,0.0,0.0,97,0.00,,---,0.00,VWS V14.01,2013-08-04 09:38:00,
2013-08-04 05:40:00,68.9,68.0,29.98,SSE,147,0.0,0.0,97,0.00,,---,0.00,VWS V14.01,2013-08-04 09:40:00,
2013-08-04 05:43:00,70.1,69.2,29.99,ESE,118,0.0,0.0,97,0.00,,---,0.00,VWS V14.01,2013-08-04 09:43:00,
2013-08-04 05:45:00,69.0,68.4,29.98,SSE,147,0.0,0.0,98,0.00,,---,0.00,VWS V14.01,2013-08-04 09:45:00,
2013-08-04 05:48:00,70.1,69.2,29.98,ESE,118,0.0,0.0,97,0.00,,---,0.00,VWS V14.01,2013-08-04 09:48:00,
2013-08-04 05:50:00,69.0,68.1,29.98,SSE,147,0.0,0.0,97,0.00,,---,0.00,VWS V14.01,2013-08-04 09:50:00,
2013-08-04 05:53:00,70.2,69.3,29.99,ESE,118,0.0,0.0,97,0.00,,---,0.00,VWS V14.01,2013-08-04 09:53:00,
2013-08-04 05:55:00,69.0,68.1,29.98,SSE,147,0.0,0.0,97,0.00,,---,0.00,VWS V14.01,2013-08-04 09:55:00,
2013-08-04 05:58:00,70.2,69.3,29.99,ESE,118,0.0,0.0,97,0.00,,---,0.00,VWS V14.01,2013-08-04 09:58:00,
2013-08-04 06:00:00,69.2,68.6,29.98,SSE,147,0.0,0.0,98,0.00,,---,0.00,VWS V14.01,2013-08-04 10:00:00,
2013-08-04 06:03:00,70.3,69.4,29.99,ESE,118,0.0,0.0,97,0.00,,---,0.00,VWS V14.01,2013-08-04 10:03:00,
2013-08-04 06:05:00,69.3,68.7,29.98,SE,143,0.0,0.0,98,0.00,,---,0.00,VWS V14.01,2013-08-04 10:05:00,
2013-08-04 06:08:00,70.2,69.3,29.99,ESE,118,0.0,0.0,97,0.00,,---,0.00,VWS V14.01,2013-08-04 10:08:00,
2013-08-04 06:10:00,69.5,68.6,29.98,ESE,118,0.0,1.0,97,0.00,,---,0.00,VWS V14.01,2013-08-04 10:10:00,
2013-08-04 06:13:00,70.3,69.4,29.99,ESE,118,0.0,0.0,97,0.00,,---,0.00,VWS V14.01,2013-08-04 10:13:00,
2013-08-04 06:15:00,69.6,68.7,29.98,ESE,118,0.0,0.0,97,0.00,,---,0.00,VWS V14.01,2013-08-04 10:15:00,
2013-08-04 06:18:00,70.3,69.4,29.98,ESE,118,0.0,0.0,97,0.00,,---,0.00,VWS V14.01,2013-08-04 10:18:00,
2013-08-04 06:20:00,69.7,68.8,29.98,ESE,119,0.0,0.0,97,0.00,,---,0.00,VWS V14.01,2013-08-04 10:20:00,
2013-08-04 06:23:00,70.4,69.5,29.99,ESE,118,0.0,0.0,97,0.00,,---,0.00,VWS V14.01,2013-08-04 10:23:00,
2013-08-04 06:25:00,69.8,68.9,29.98,ESE,118,0.0,0.0,97,0.00,,---,0.00,VWS V14.01,2013-08-04 10:25:00,
2013-08-04 06:28:00,70.4,69.5,29.98,ESE,118,0.0,0.0,97,0.00,,---,0.00,VWS V14.01,2013-08-04 10:28:00,
2013-08-04 06:30:00,69.9,69.0,29.98,ESE,118,0.0,0.0,97,0.00,,---,0.00,VWS V14.01,2013-08-04 10:30:00,
2013-08-04 06:33:00,70.4,69.5,29.98,ESE,118,0.0,0.0,97,0.00,,---,0.00,VWS V14.01,2013-08-04 10:33:00,
2013-08-04 06:35:00,70.0,69.1,29.98,ESE,118,0.0,0.0,97,0.00,,---,0.00,VWS V14.01,2013-08-04 10:35:00,
2013-08-04 06:38:00,70.5,69.6,29.98,ESE,118,0.0,0.0,97,0.00,,---,0.00,VWS V14.01,2013-08-04 10:38:00,
2013-08-04 06:40:00,70.1,69.2,29.98,ESE,118,0.0,0.0,97,0.00,,---,0.00,VWS V14.01,2013-08-04 10:40:00,
2013-08-04 06:43:00,70.6,69.7,29.99,ESE,118,0.0,0.0,97,0.00,,---,0.00,VWS V14.01,2013-08-04 10:43:00,
2013-08-04 06:45:00,70.1,69.2,29.98,ESE,118,0.0,0.0,97,0.00,,---,0.00,VWS V14.01,2013-08-04 10:45:00,
2013-08-04 06:48:00,70.6,69.7,29.98,ESE,118,0.0,0.0,97,0.00,,---,0.00,VWS V14.01,2013-08-04 10:48:00,
2013-08-04 06:50:00,70.1,69.2,29.98,ESE,118,0.0,0.0,97,0.00,,---,0.00,VWS V14.01,2013-08-04 10:50:00,
2013-08-04 06:53:00,70.7,69.8,29.98,ESE,118,0.0,0.0,97,0.00,,---,0.00,VWS V14.01,2013-08-04 10:53:00,
2013-08-04 06:55:00,70.2,69.3,29.99,ESE,118,0.0,0.0,97,0.00,,---,0.00,VWS V14.01,2013-08-04 10:55:00,
2013-08-04 06:58:00,70.7,69.5,29.99,ESE,118,0.0,0.0,96,0.00,,---,0.00,VWS V14.01,2013-08-04 10:58:00,
2013-08-04 07:00:00,70.2,69.3,29.99,ESE,118,0.0,0.0,97,0.00,,---,0.00,VWS V14.01,2013-08-04 11:00:00,
2013-08-04 07:03:00,70.8,69.9,29.99,ESE,118,0.0,0.0,97,0.00,,---,0.00,VWS V14.01,2013-08-04 11:03:00,
2013-08-04 07:05:00,70.3,69.4,29.99,ESE,118,0.0,0.0,97,0.00,,---,0.00,VWS V14.01,2013-08-04 11:05:00,
2013-08-04 07:08:00,70.8,69.9,29.99,ESE,118,0.0,0.0,97,0.00,,---,0.00,VWS V14.01,2013-08-04 11:08:00,
2013-08-04 07:10:00,70.3,69.4,29.99,ESE,118,0.0,0.0,97,0.00,,---,0.00,VWS V14.01,2013-08-04 11:10:00,
2013-08-04 07:13:00,71.0,70.1,29.99,ESE,118,0.0,0.0,97,0.00,,---,0.00,VWS V14.01,2013-08-04 11:13:00,
2013-08-04 07:15:00,70.3,69.4,29.99,ESE,118,0.0,0.0,97,0.00,,---,0.00,VWS V14.01,2013-08-04 11:15:00,
2013-08-04 07:18:00,71.0,69.8,29.99,ESE,118,0.0,0.0,96,0.00,,---,0.00,VWS V14.01,2013-08-04 11:18:00,
2013-08-04 07:20:00,70.3,69.4,29.98,ESE,118,0.0,0.0,97,0.00,,---,0.00,VWS V14.01,2013-08-04 11:20:00,
2013-08-04 07:23:00,71.0,69.8,29.99,ESE,119,0.0,0.0,96,0.00,,---,0.00,VWS V14.01,2013-08-04 11:23:00,
2013-08-04 07:25:00,70.4,69.5,29.99,ESE,118,0.0,0.0,97,0.00,,---,0.00,VWS V14.01,2013-08-04 11:25:00,
2013-08-04 07:28:00,70.9,69.7,30.00,ESE,118,0.0,0.0,96,0.00,,---,0.00,VWS V14.01,2013-08-04 11:28:00,
2013-08-04 07:30:00,70.4,69.5,29.99,ESE,119,0.0,0.0,97,0.00,,---,0.00,VWS V14.01,2013-08-04 11:30:00,
2013-08-04 07:33:00,70.7,69.8,30.00,ESE,118,0.0,0.0,97,0.00,,---,0.00,VWS V14.01,2013-08-04 11:33:00,
2013-08-04 07:35:00,70.4,69.5,29.98,ESE,118,0.0,0.0,97,0.00,,---,0.00,VWS V14.01,2013-08-04 11:35:00,
2013-08-04 07:38:00,70.7,69.8,30.00,ESE,119,0.0,0.0,97,0.00,,---,0.00,VWS V14.01,2013-08-04 11:38:00,
2013-08-04 07:40:00,70.5,69.3,29.99,ESE,119,0.0,0.0,96,0.00,,---,0.00,VWS V14.01,2013-08-04 11:40:00,
2013-08-04 07:44:00,70.7,69.8,30.00,ESE,119,0.0,0.0,97,0.00,,---,0.00,VWS V14.01,2013-08-04 11:44:00,
2013-08-04 07:45:00,70.6,69.7,29.98,ESE,118,0.0,0.0,97,0.00,,---,0.00,VWS V14.01,2013-08-04 11:45:00,
2013-08-04 07:49:00,70.8,69.9,30.00,ESE,118,0.0,0.0,97,0.00,,---,0.00,VWS V14.01,2013-08-04 11:49:00,
2013-08-04 07:50:00,70.6,69.7,29.98,ESE,118,0.0,1.0,97,0.00,,---,0.00,VWS V14.01,2013-08-04 11:50:00,
2013-08-04 07:54:00,71.1,70.2,30.01,ESE,118,0.0,0.0,97,0.00,,---,0.00,VWS V14.01,2013-08-04 11:54:00,
2013-08-04 07:55:00,70.7,69.8,29.99,ESE,118,0.0,0.0,97,0.00,,---,0.00,VWS V14.01,2013-08-04 11:55:00,
2013-08-04 07:59:00,71.3,70.4,30.00,ESE,118,0.0,0.0,97,0.00,,---,0.00,VWS V14.01,2013-08-04 11:59:00,
2013-08-04 08:00:00,70.7,69.5,29.99,ESE,119,0.0,0.0,96,0.00,,---,0.00,VWS V14.01,2013-08-04 12:00:00,
2013-08-04 08:04:00,71.8,70.6,30.00,SE,146,1.0,1.0,96,0.00,,---,0.00,VWS V14.01,2013-08-04 12:04:00,
2013-08-04 08:05:00,70.8,69.9,29.99,ESE,118,0.0,0.0,97,0.00,,---,0.00,VWS V14.01,2013-08-04 12:05:00,
2013-08-04 08:09:00,72.4,70.9,30.00,SE,146,0.0,1.0,95,0.00,,---,0.00,VWS V14.01,2013-08-04 12:09:00,
2013-08-04 08:10:00,70.9,70.0,29.99,ESE,118,0.0,0.0,97,0.00,,---,0.00,VWS V14.01,2013-08-04 12:10:00,
2013-08-04 08:13:00,73.2,71.7,30.00,SE,146,0.0,0.0,95,0.00,,---,0.00,VWS V14.01,2013-08-04 12:13:00,
2013-08-04 08:15:00,71.0,70.1,29.99,ESE,118,0.0,0.0,97,0.00,,---,0.00,VWS V14.01,2013-08-04 12:15:00,
2013-08-04 08:19:00,74.0,71.5,30.00,East,92,0.0,1.0,92,0.00,,---,0.00,VWS V14.01,2013-08-04 12:19:00,
2013-08-04 08:20:00,71.0,69.8,29.99,ESE,119,0.0,0.0,96,0.00,,---,0.00,VWS V14.01,2013-08-04 12:20:00,
2013-08-04 08:24:00,74.3,71.8,30.01,East,89,0.0,1.0,92,0.00,,---,0.00,VWS V14.01,2013-08-04 12:24:00,
2013-08-04 08:25:00,71.0,69.8,29.99,ESE,118,0.0,0.0,96,0.00,,---,0.00,VWS V14.01,2013-08-04 12:25:00,
2013-08-04 08:29:00,74.8,72.0,30.01,East,89,0.0,1.0,91,0.00,,---,0.00,VWS V14.01,2013-08-04 12:29:00,
2013-08-04 08:30:00,70.8,69.6,30.00,ESE,118,0.0,0.0,96,0.00,,---,0.00,VWS V14.01,2013-08-04 12:30:00,
2013-08-04 08:34:00,75.1,72.0,30.01,East,89,0.0,0.0,90,0.00,,---,0.00,VWS V14.01,2013-08-04 12:34:00,
2013-08-04 08:35:00,70.7,69.8,30.00,ESE,119,0.0,0.0,97,0.00,,---,0.00,VWS V14.01,2013-08-04 12:35:00,
2013-08-04 08:39:00,76.0,72.9,30.01,East,89,0.0,0.0,90,0.00,,---,0.00,VWS V14.01,2013-08-04 12:39:00,
2013-08-04 08:40:00,70.7,69.8,30.00,ESE,118,0.0,0.0,97,0.00,,---,0.00,VWS V14.01,2013-08-04 12:40:00,
2013-08-04 08:44:00,77.1,72.9,30.01,East,89,0.0,1.0,87,0.00,,---,0.00,VWS V14.01,2013-08-04 12:44:00,
2013-08-04 08:45:00,70.7,69.8,30.00,ESE,118,0.0,0.0,97,0.00,,---,0.00,VWS V14.01,2013-08-04 12:45:00,
2013-08-04 08:49:00,77.8,72.6,30.01,East,86,0.0,1.0,84,0.00,,---,0.00,VWS V14.01,2013-08-04 12:49:00,
2013-08-04 08:50:00,70.9,70.0,30.01,ESE,118,0.0,0.0,97,0.00,,---,0.00,VWS V14.01,2013-08-04 12:50:00,
2013-08-04 08:54:00,77.7,71.8,30.00,NE,45,1.0,1.0,82,0.00,,---,0.00,VWS V14.01,2013-08-04 12:54:00,
2013-08-04 08:55:00,71.1,70.2,30.01,ESE,118,0.0,0.0,97,0.00,,---,0.00,VWS V14.01,2013-08-04 12:55:00,
2013-08-04 08:59:00,78.6,72.3,30.01,NE,48,0.0,1.0,81,0.00,,---,0.00,VWS V14.01,2013-08-04 12:59:00,
2013-08-04 09:00:00,71.4,70.5,30.00,SSE,159,0.0,0.0,97,0.00,,---,0.00,VWS V14.01,2013-08-04 13:00:00,
2013-08-04 09:04:00,78.9,71.8,30.00,SE,127,1.0,2.0,79,0.00,,---,0.00,VWS V14.01,2013-08-04 13:04:00,
2013-08-04 09:05:00,71.9,70.7,30.00,SE,146,0.0,1.0,96,0.00,,---,0.00,VWS V14.01,2013-08-04 13:05:00,
2013-08-04 09:09:00,79.0,71.9,30.00,ENE,68,0.0,2.0,79,0.00,,---,0.00,VWS V14.01,2013-08-04 13:09:00,
2013-08-04 09:10:00,72.5,71.0,30.00,SE,146,0.0,1.0,95,0.00,,---,0.00,VWS V14.01,2013-08-04 13:10:00,
2013-08-04 09:14:00,78.8,71.7,30.00,WNW,293,0.0,2.0,79,0.00,,---,0.00,VWS V14.01,2013-08-04 13:14:00,
2013-08-04 09:15:00,73.3,71.8,30.00,SE,146,0.0,0.0,95,0.00,,---,0.00,VWS V14.01,2013-08-04 13:15:00,
2013-08-04 09:19:00,79.4,72.3,30.00,WNW,293,0.0,0.0,79,0.00,,---,0.00,VWS V14.01,2013-08-04 13:19:00,
2013-08-04 09:20:00,74.1,71.6,30.00,ESE,103,0.0,1.0,92,0.00,,---,0.00,VWS V14.01,2013-08-04 13:20:00,
2013-08-04 09:24:00,81.1,73.2,30.00,ENE,63,0.0,1.0,77,0.00,,---,0.00,VWS V14.01,2013-08-04 13:24:00,
2013-08-04 09:25:00,74.3,71.8,30.01,East,89,0.0,1.0,92,0.00,,---,0.00,VWS V14.01,2013-08-04 13:25:00,
2013-08-04 09:29:00,81.7,72.6,30.00,North,349,0.0,1.0,74,0.00,,---,0.00,VWS V14.01,2013-08-04 13:29:00,
2013-08-04 09:30:00,74.8,72.0,30.01,East,89,0.0,1.0,91,0.00,,---,0.00,VWS V14.01,2013-08-04 13:30:00,
2013-08-04 09:34:00,81.9,73.6,30.00,North,8,0.0,1.0,76,0.00,,---,0.00,VWS V14.01,2013-08-04 13:34:00,
2013-08-04 09:35:00,75.2,72.1,30.01,East,89,0.0,0.0,90,0.00,,---,0.00,VWS V14.01,2013-08-04 13:35:00,
2013-08-04 09:39:00,82.8,73.7,30.00,SSE,165,1.0,2.0,74,0.00,,---,0.00,VWS V14.01,2013-08-04 13:39:00,
2013-08-04 09:40:00,76.1,73.0,30.01,East,89,0.0,0.0,90,0.00,,---,0.00,VWS V14.01,2013-08-04 13:40:00,
2013-08-04 09:44:00,82.5,72.6,30.00,NNE,28,0.0,2.0,72,0.00,,---,0.00,VWS V14.01,2013-08-04 13:44:00,
2013-08-04 09:45:00,77.3,73.1,30.01,East,89,0.0,1.0,87,0.00,,---,0.00,VWS V14.01,2013-08-04 13:45:00,
2013-08-04 09:49:00,82.6,72.7,30.00,NNE,23,0.0,1.0,72,0.00,,---,0.00,VWS V14.01,2013-08-04 13:49:00,
2013-08-04 09:50:00,77.8,72.6,30.01,East,86,0.0,1.0,84,0.00,,---,0.00,VWS V14.01,2013-08-04 13:50:00,
2013-08-04 09:54:00,82.2,72.3,30.00,WSW,243,2.0,3.0,72,0.00,,---,0.00,VWS V14.01,2013-08-04 13:54:00,
2013-08-04 09:55:00,77.8,71.9,30.00,NE,48,0.0,1.0,82,0.00,,---,0.00,VWS V14.01,2013-08-04 13:55:00,
2013-08-04 09:59:00,81.1,72.4,30.00,West,271,0.0,6.0,75,0.00,,---,0.00,VWS V14.01,2013-08-04 13:59:00,
2013-08-04 10:00:00,78.7,72.4,30.01,West,276,1.0,1.0,81,0.00,,---,0.00,VWS V14.01,2013-08-04 14:00:00,
2013-08-04 10:04:00,81.9,72.4,30.00,NNE,13,1.0,3.0,73,0.00,,---,0.00,VWS V14.01,2013-08-04 14:04:00,
2013-08-04 10:05:00,78.8,71.7,30.00,SE,124,1.0,2.0,79,0.00,,---,0.00,VWS V14.01,2013-08-04 14:05:00,
2013-08-04 10:09:00,82.3,72.8,30.00,SW,226,0.0,1.0,73,0.00,,---,0.00,VWS V14.01,2013-08-04 14:09:00,
2013-08-04 10:10:00,79.0,71.9,30.00,ENE,68,0.0,2.0,79,0.00,,---,0.00,VWS V14.01,2013-08-04 14:10:00,
2013-08-04 10:14:00,83.0,73.5,30.00,West,274,1.0,3.0,73,0.00,,---,0.00,VWS V14.01,2013-08-04 14:14:00,
2013-08-04 10:15:00,78.8,72.1,30.00,WNW,293,0.0,2.0,80,0.00,,---,0.00,VWS V14.01,2013-08-04 14:15:00,
2013-08-04 10:19:00,82.7,72.8,30.00,NW,311,2.0,3.0,72,0.00,,---,0.00,VWS V14.01,2013-08-04 14:19:00,
2013-08-04 10:20:00,79.6,72.5,30.00,WNW,293,0.0,0.0,79,0.00,,---,0.00,VWS V14.01,2013-08-04 14:20:00,
2013-08-04 10:24:00,82.6,72.7,30.00,West,269,2.0,2.0,72,0.00,,---,0.00,VWS V14.01,2013-08-04 14:24:00,
2013-08-04 10:25:00,81.2,73.3,30.00,ENE,63,0.0,1.0,77,0.00,,---,0.00,VWS V14.01,2013-08-04 14:25:00,
2013-08-04 10:29:00,83.1,73.1,30.00,East,87,1.0,3.0,72,0.00,,---,0.00,VWS V14.01,2013-08-04 14:29:00,
2013-08-04 10:30:00,81.6,72.5,30.00,North,349,0.0,1.0,74,0.00,,---,0.00,VWS V14.01,2013-08-04 14:30:00,
2013-08-04 10:34:00,83.4,73.0,30.00,NE,51,0.0,2.0,71,0.00,,---,0.00,VWS V14.01,2013-08-04 14:34:00,
2013-08-04 10:35:00,82.0,73.7,30.00,ENE,61,0.0,1.0,76,0.00,,---,0.00,VWS V14.01,2013-08-04 14:35:00,
2013-08-04 10:39:00,83.9,73.5,30.00,ENE,69,3.0,3.0,71,0.00,,---,0.00,VWS V14.01,2013-08-04 14:39:00,
2013-08-04 10:40:00,82.9,73.8,30.00,SSE,160,1.0,2.0,74,0.00,,---,0.00,VWS V14.01,2013-08-04 14:40:00,
2013-08-04 10:44:00,83.7,73.3,30.00,SE,131,0.0,4.0,71,0.00,,---,0.00,VWS V14.01,2013-08-04 14:44:00,
2013-08-04 10:45:00,82.5,72.6,30.00,NNE,28,0.0,2.0,72,0.00,,---,0.00,VWS V14.01,2013-08-04 14:45:00,
2013-08-04 10:49:00,84.4,73.1,30.00,ENE,71,1.0,3.0,69,0.00,,---,0.00,VWS V14.01,2013-08-04 14:49:00,
2013-08-04 10:50:00,82.6,72.7,30.00,NNE,20,0.0,1.0,72,0.00,,---,0.00,VWS V14.01,2013-08-04 14:50:00,
2013-08-04 10:54:00,84.4,73.6,30.00,East,101,2.0,6.0,70,0.00,,---,0.00,VWS V14.01,2013-08-04 14:54:00,
2013-08-04 10:55:00,82.2,72.3,30.00,WNW,286,4.0,4.0,72,0.00,,---,0.00,VWS V14.01,2013-08-04 14:55:00,
2013-08-04 10:59:00,83.5,72.7,30.00,NE,48,0.0,5.0,70,0.00,,---,0.00,VWS V14.01,2013-08-04 14:59:00,
2013-08-04 11:00:00,81.1,72.8,30.00,North,360,0.0,6.0,76,0.00,,---,0.00,VWS V14.01,2013-08-04 15:00:00,
2013-08-04 11:04:00,83.4,73.0,30.00,East,95,2.0,3.0,71,0.00,,---,0.00,VWS V14.01,2013-08-04 15:04:00,
2013-08-04 11:05:00,81.9,72.4,30.00,NNE,13,0.0,3.0,73,0.00,,---,0.00,VWS V14.01,2013-08-04 15:05:00,
2013-08-04 11:09:00,83.3,72.1,30.00,ENE,69,1.0,5.0,69,0.00,,---,0.00,VWS V14.01,2013-08-04 15:09:00,
2013-08-04 11:10:00,82.3,72.8,30.00,ESE,113,2.0,2.0,73,0.00,,---,0.00,VWS V14.01,2013-08-04 15:10:00,
2013-08-04 11:14:00,82.6,71.0,30.00,NNE,15,1.0,4.0,68,0.00,,---,0.00,VWS V14.01,2013-08-04 15:14:00,
2013-08-04 11:15:00,82.9,73.4,30.00,West,266,1.0,3.0,73,0.00,,---,0.00,VWS V14.01,2013-08-04 15:15:00,
2013-08-04 11:19:00,82.4,71.2,30.01,North,351,1.0,3.0,69,0.00,,---,0.00,VWS V14.01,2013-08-04 15:19:00,
2013-08-04 11:20:00,82.6,72.7,30.00,NW,310,1.0,3.0,72,0.00,,---,0.00,VWS V14.01,2013-08-04 15:20:00,
2013-08-04 11:25:00,82.6,72.7,30.01,NE,54,0.0,2.0,72,0.00,,---,0.00,VWS V14.01,2013-08-04 15:25:00,
2013-08-04 11:30:00,82.9,72.1,30.01,ENE,74,1.0,2.0,70,0.00,,---,0.00,VWS V14.01,2013-08-04 15:30:00,
2013-08-04 11:34:00,83.9,73.5,30.01,SE,134,4.0,4.0,71,0.00,,---,0.00,VWS V14.01,2013-08-04 15:34:00,
2013-08-04 11:35:00,83.5,73.1,30.00,NE,41,1.0,2.0,71,0.00,,---,0.00,VWS V14.01,2013-08-04 15:35:00,
2013-08-04 11:39:00,84.4,72.2,30.01,NNE,13,1.0,6.0,67,0.00,,---,0.00,VWS V14.01,2013-08-04 15:39:00,
2013-08-04 11:40:00,83.9,73.5,30.00,ESE,105,4.0,4.0,71,0.00,,---,0.00,VWS V14.01,2013-08-04 15:40:00,
2013-08-04 11:45:00,84.4,71.8,30.01,WNW,286,2.0,4.0,66,0.00,,---,0.00,VWS V14.01,2013-08-04 15:45:00,
2013-08-04 11:49:00,84.1,72.0,30.01,North,2,0.0,6.0,67,0.00,,---,0.00,VWS V14.01,2013-08-04 15:49:00,
2013-08-04 11:50:00,84.4,73.1,30.00,NNE,32,2.0,3.0,69,0.00,,---,0.00,VWS V14.01,2013-08-04 15:50:00,
2013-08-04 11:55:00,84.8,72.2,30.01,NNW,344,1.0,4.0,66,0.00,,---,0.00,VWS V14.01,2013-08-04 15:55:00,
2013-08-04 12:00:00,84.3,71.3,30.01,NE,44,1.0,6.0,65,0.00,,---,0.00,VWS V14.01,2013-08-04 16:00:00,
2013-08-04 12:04:00,84.5,71.4,30.01,NE,41,4.0,6.0,65,0.00,,---,0.00,VWS V14.01,2013-08-04 16:04:00,
2013-08-04 12:05:00,83.4,73.0,30.00,East,82,2.0,3.0,71,0.00,,---,0.00,VWS V14.01,2013-08-04 16:05:00,
2013-08-04 12:10:00,84.5,71.4,30.00,ENE,71,2.0,2.0,65,0.00,,---,0.00,VWS V14.01,2013-08-04 16:10:00,
2013-08-04 12:15:00,84.6,71.6,30.00,NE,52,2.0,2.0,65,0.00,,---,0.00,VWS V14.01,2013-08-04 16:15:00,
2013-08-04 12:20:00,85.0,71.9,30.00,East,93,5.0,5.0,65,0.00,,---,0.00,VWS V14.01,2013-08-04 16:20:00,
2013-08-04 12:25:00,85.6,72.9,30.00,East,79,1.0,1.0,66,0.00,,---,0.00,VWS V14.01,2013-08-04 16:25:00,
2013-08-04 12:30:00,86.4,72.3,29.99,West,279,0.0,0.0,63,0.00,,---,0.00,VWS V14.01,2013-08-04 16:30:00,
2013-08-04 12:35:00,86.3,71.8,29.99,NE,44,2.0,3.0,62,0.00,,---,0.00,VWS V14.01,2013-08-04 16:35:00,
2013-08-04 12:40:00,85.2,71.2,30.00,NNW,340,1.0,1.0,63,0.00,,---,0.00,VWS V14.01,2013-08-04 16:40:00,
2013-08-04 12:45:00,85.9,72.8,29.99,North,350,1.0,1.0,65,0.00,,---,0.00,VWS V14.01,2013-08-04 16:45:00,
2013-08-04 12:50:00,85.1,71.1,29.99,ENE,63,1.0,1.0,63,0.00,,---,0.00,VWS V14.01,2013-08-04 16:50:00,
2013-08-04 12:55:00,84.2,71.6,29.99,NNE,31,0.0,0.0,66,0.00,,---,0.00,VWS V14.01,2013-08-04 16:55:00,
2013-08-04 13:00:00,84.9,71.8,29.99,North,356,0.0,0.0,65,0.00,,---,0.00,VWS V14.01,2013-08-04 17:00:00,
2013-08-04 13:05:00,86.3,71.8,29.99,NE,41,3.0,3.0,62,0.00,,---,0.00,VWS V14.01,2013-08-04 17:05:00,
2013-08-04 13:10:00,86.7,70.7,29.99,NE,47,1.0,2.0,59,0.00,,---,0.00,VWS V14.01,2013-08-04 17:10:00,
2013-08-04 13:15:00,86.3,70.8,29.99,ENE,57,1.0,1.0,60,0.00,,---,0.00,VWS V14.01,2013-08-04 17:15:00,
2013-08-04 13:20:00,85.4,69.9,29.99,ESE,113,2.0,3.0,60,0.00,,---,0.00,VWS V14.01,2013-08-04 17:20:00,
2013-08-04 13:25:00,85.9,70.9,29.99,SE,138,2.0,2.0,61,0.00,,---,0.00,VWS V14.01,2013-08-04 17:25:00,
2013-08-04 13:30:00,86.5,71.9,29.99,ENE,65,7.0,7.0,62,0.00,,---,0.00,VWS V14.01,2013-08-04 17:30:00,
2013-08-04 13:35:00,84.8,73.1,29.99,SE,134,5.0,5.0,68,0.00,,---,0.00,VWS V14.01,2013-08-04 17:35:00,
2013-08-04 13:40:00,84.2,72.9,29.99,East,98,2.0,2.0,69,0.00,,---,0.00,VWS V14.01,2013-08-04 17:40:00,
2013-08-04 13:45:00,84.3,73.0,29.99,SSW,195,1.0,3.0,69,0.00,,---,0.00,VWS V14.01,2013-08-04 17:45:00,
2013-08-04 13:50:00,84.3,72.2,29.99,SE,124,7.0,10.0,67,0.00,,---,0.00,VWS V14.01,2013-08-04 17:50:00,
2013-08-04 13:55:00,84.4,72.7,29.99,NE,34,3.0,3.0,68,0.00,,---,0.00,VWS V14.01,2013-08-04 17:55:00,
2013-08-04 14:00:00,85.3,72.2,29.99,NNW,345,2.0,6.0,65,0.00,,---,0.00,VWS V14.01,2013-08-04 18:00:00,
2013-08-04 14:05:00,85.4,73.2,29.98,ESE,109,2.0,2.0,67,0.00,,---,0.00,VWS V14.01,2013-08-04 18:05:00,
2013-08-04 14:10:00,86.1,73.4,29.98,East,94,4.0,5.0,66,0.00,,---,0.00,VWS V14.01,2013-08-04 18:10:00,
2013-08-04 14:15:00,86.1,73.0,29.98,NE,40,0.0,1.0,65,0.00,,---,0.00,VWS V14.01,2013-08-04 18:15:00,
2013-08-04 14:20:00,86.4,71.4,29.98,North,4,1.0,3.0,61,0.00,,---,0.00,VWS V14.01,2013-08-04 18:20:00,
2013-08-04 14:25:00,86.1,70.6,29.98,West,281,3.0,3.0,60,0.00,,---,0.00,VWS V14.01,2013-08-04 18:25:00,
2013-08-04 14:30:00,85.4,69.9,29.98,NE,38,1.0,3.0,60,0.00,,---,0.00,VWS V14.01,2013-08-04 18:30:00,
2013-08-04 14:35:00,86.0,71.9,29.98,WNW,296,0.0,1.0,63,0.00,,---,0.00,VWS V14.01,2013-08-04 18:35:00,
2013-08-04 14:40:00,87.0,71.4,29.98,North,10,1.0,1.0,60,0.00,,---,0.00,VWS V14.01,2013-08-04 18:40:00,
2013-08-04 14:45:00,86.4,70.9,29.98,West,271,1.0,2.0,60,0.00,,---,0.00,VWS V14.01,2013-08-04 18:45:00,
2013-08-04 14:50:00,86.3,68.8,29.98,NNE,23,0.0,2.0,56,0.00,,---,0.00,VWS V14.01,2013-08-04 18:50:00,
2013-08-04 14:55:00,87.2,69.1,29.98,ENE,62,1.0,3.0,55,0.00,,---,0.00,VWS V14.01,2013-08-04 18:55:00,
2013-08-04 15:00:00,87.5,69.4,29.97,SW,219,0.0,3.0,55,0.00,,---,0.00,VWS V14.01,2013-08-04 19:00:00,
2013-08-04 15:05:00,86.9,69.3,29.97,East,94,2.0,5.0,56,0.00,,---,0.00,VWS V14.01,2013-08-04 19:05:00,
2013-08-04 15:10:00,86.6,69.1,29.98,NNE,21,1.0,2.0,56,0.00,,---,0.00,VWS V14.01,2013-08-04 19:10:00,
2013-08-04 15:15:00,86.1,72.5,29.98,NE,45,0.0,7.0,64,0.00,,---,0.00,VWS V14.01,2013-08-04 19:15:00,
2013-08-04 15:16:00,86.7,68.1,29.97,West,269,4.0,7.0,54,0.00,,---,0.00,VWS V14.01,2013-08-04 19:16:00,
2013-08-04 15:20:00,86.4,70.9,29.98,NE,49,1.0,3.0,60,0.00,,---,0.00,VWS V14.01,2013-08-04 19:20:00,
2013-08-04 15:21:00,86.3,68.8,29.97,NNW,342,0.0,1.0,56,0.00,,---,0.00,VWS V14.01,2013-08-04 19:21:00,
2013-08-04 15:25:00,86.1,69.6,29.98,WNW,293,2.0,3.0,58,0.00,,---,0.00,VWS V14.01,2013-08-04 19:25:00,
2013-08-04 15:26:00,86.5,69.5,29.97,NW,313,1.0,1.0,57,0.00,,---,0.00,VWS V14.01,2013-08-04 19:26:00,
2013-08-04 15:30:00,85.4,69.9,29.98,NE,46,1.0,3.0,60,0.00,,---,0.00,VWS V14.01,2013-08-04 19:30:00,
2013-08-04 15:31:00,86.5,70.5,29.97,WNW,286,0.0,0.0,59,0.00,,---,0.00,VWS V14.01,2013-08-04 19:31:00,
2013-08-04 15:35:00,85.9,71.8,29.98,WNW,297,1.0,3.0,63,0.00,,---,0.00,VWS V14.01,2013-08-04 19:35:00,
2013-08-04 15:36:00,86.4,71.4,29.97,NE,54,1.0,1.0,61,0.00,,---,0.00,VWS V14.01,2013-08-04 19:36:00,
2013-08-04 15:40:00,86.9,70.9,29.98,NE,46,0.0,3.0,59,0.00,,---,0.00,VWS V14.01,2013-08-04 19:40:00,
2013-08-04 15:41:00,86.5,69.0,29.96,NE,42,1.0,3.0,56,0.00,,---,0.00,VWS V14.01,2013-08-04 19:41:00,
2013-08-04 15:45:00,86.6,69.6,29.98,NNW,327,1.0,6.0,57,0.00,,---,0.00,VWS V14.01,2013-08-04 19:45:00,
2013-08-04 15:46:00,86.8,69.8,29.96,NNE,30,0.0,2.0,57,0.00,,---,0.00,VWS V14.01,2013-08-04 19:46:00,
2013-08-04 15:50:00,87.5,68.8,29.96,North,356,1.0,3.0,54,0.00,,---,0.00,VWS V14.01,2013-08-04 19:50:00,
2013-08-04 15:55:00,87.2,70.1,29.98,NE,41,3.0,4.0,57,0.00,,---,0.00,VWS V14.01,2013-08-04 19:55:00,
2013-08-04 15:56:00,86.6,69.1,29.97,NW,324,2.0,3.0,56,0.00,,---,0.00,VWS V14.01,2013-08-04 19:56:00,
2013-08-04 16:00:00,87.4,70.3,29.98,NW,311,2.0,5.0,57,0.00,,---,0.00,VWS V14.01,2013-08-04 20:00:00,
2013-08-04 16:01:00,86.0,69.5,29.97,NE,47,0.0,2.0,58,0.00,,---,0.00,VWS V14.01,2013-08-04 20:01:00,
2013-08-04 16:05:00,87.1,69.5,29.97,East,79,4.0,7.0,56,0.00,,---,0.00,VWS V14.01,2013-08-04 20:05:00,
2013-08-04 16:06:00,86.8,70.8,29.96,NE,46,0.0,3.0,59,0.00,,---,0.00,VWS V14.01,2013-08-04 20:06:00,
2013-08-04 16:10:00,86.6,68.5,29.97,NE,39,1.0,5.0,55,0.00,,---,0.00,VWS V14.01,2013-08-04 20:10:00,
2013-08-04 16:15:00,86.8,68.2,29.97,WNW,302,3.0,6.0,54,0.00,,---,0.00,VWS V14.01,2013-08-04 20:15:00,
2013-08-04 16:20:00,86.2,67.6,29.97,NW,322,1.0,7.0,54,0.00,,---,0.00,VWS V14.01,2013-08-04 20:20:00,
2013-08-04 16:25:00,86.5,69.0,29.97,NW,312,1.0,4.0,56,0.00,,---,0.00,VWS V14.01,2013-08-04 20:25:00,
2013-08-04 16:30:00,86.5,70.5,29.97,WNW,287,0.0,2.0,59,0.00,,---,0.00,VWS V14.01,2013-08-04 20:30:00,
2013-08-04 16:35:00,86.4,70.9,29.97,NNW,329,0.0,2.0,60,0.00,,---,0.00,VWS V14.01,2013-08-04 20:35:00,
2013-08-04 16:40:00,86.5,70.5,29.97,NW,307,1.0,5.0,59,0.00,,---,0.00,VWS V14.01,2013-08-04 20:40:00,
2013-08-04 16:45:00,86.7,69.1,29.96,NE,48,1.0,6.0,56,0.00,,---,0.00,VWS V14.01,2013-08-04 20:45:00,
2013-08-04 16:50:00,87.5,68.8,29.96,NNW,340,0.0,4.0,54,0.00,,---,0.00,VWS V14.01,2013-08-04 20:50:00,
2013-08-04 16:55:00,87.0,68.9,29.96,NNW,345,1.0,5.0,55,0.00,,---,0.00,VWS V14.01,2013-08-04 20:55:00,
2013-08-04 17:00:00,86.0,69.5,29.96,WNW,293,1.0,3.0,58,0.00,,---,0.00,VWS V14.01,2013-08-04 21:00:00,
2013-08-04 17:05:00,86.6,70.6,29.96,NE,51,1.0,3.0,59,0.00,,---,0.00,VWS V14.01,2013-08-04 21:05:00,
2013-08-04 17:10:00,87.1,69.0,29.96,NNE,13,1.0,3.0,55,0.00,,---,0.00,VWS V14.01,2013-08-04 21:10:00,
2013-08-04 17:15:00,87.2,68.5,29.96,WNW,292,1.0,3.0,54,0.00,,---,0.00,VWS V14.01,2013-08-04 21:15:00,
2013-08-04 17:20:00,87.5,69.4,29.95,WNW,292,1.0,5.0,55,0.00,,---,0.00,VWS V14.01,2013-08-04 21:20:00,
2013-08-04 17:25:00,87.5,68.8,29.95,NW,315,1.0,5.0,54,0.00,,---,0.00,VWS V14.01,2013-08-04 21:25:00,
2013-08-04 17:30:00,87.9,67.5,29.96,NE,45,2.0,7.0,51,0.00,,---,0.00,VWS V14.01,2013-08-04 21:30:00,
2013-08-04 17:35:00,87.9,68.1,29.95,NW,315,1.0,8.0,52,0.00,,---,0.00,VWS V14.01,2013-08-04 21:35:00,
2013-08-04 17:40:00,88.5,68.6,29.95,West,270,1.0,5.0,52,0.00,,---,0.00,VWS V14.01,2013-08-04 21:40:00,
2013-08-04 17:45:00,88.3,68.5,29.95,NE,45,2.0,5.0,52,0.00,,---,0.00,VWS V14.01,2013-08-04 21:45:00,
2013-08-04 17:50:00,88.5,68.6,29.95,NE,45,1.0,3.0,52,0.00,,---,0.00,VWS V14.01,2013-08-04 21:50:00,
2013-08-04 17:55:00,88.1,68.3,29.95,NE,45,1.0,6.0,52,0.00,,---,0.00,VWS V14.01,2013-08-04 21:55:00,
2013-08-04 18:00:00,87.2,69.1,29.95,NE,45,2.0,5.0,55,0.00,,---,0.00,VWS V14.01,2013-08-04 22:00:00,
2013-08-04 18:05:00,86.9,68.8,29.95,NE,45,1.0,5.0,55,0.00,,---,0.00,VWS V14.01,2013-08-04 22:05:00,
2013-08-04 18:10:00,87.2,68.5,29.95,NW,315,1.0,3.0,54,0.00,,---,0.00,VWS V14.01,2013-08-04 22:10:00,
2013-08-04 18:15:00,87.4,68.2,29.95,ENE,68,1.0,4.0,53,0.00,,---,0.00,VWS V14.01,2013-08-04 22:15:00,
2013-08-04 18:20:00,87.2,68.0,29.95,NW,315,1.0,3.0,53,0.00,,---,0.00,VWS V14.01,2013-08-04 22:20:00,
2013-08-04 18:25:00,87.2,68.0,29.95,NE,45,2.0,5.0,53,0.00,,---,0.00,VWS V14.01,2013-08-04 22:25:00,
2013-08-04 18:30:00,87.3,67.0,29.95,ENE,68,1.0,5.0,51,0.00,,---,0.00,VWS V14.01,2013-08-04 22:30:00,
2013-08-04 18:35:00,87.7,67.3,29.95,NE,45,1.0,3.0,51,0.00,,---,0.00,VWS V14.01,2013-08-04 22:35:00,
2013-08-04 18:40:00,87.5,66.0,29.95,NE,45,0.0,2.0,49,0.00,,---,0.00,VWS V14.01,2013-08-04 22:40:00,
2013-08-04 18:45:00,87.4,67.1,29.95,NW,315,1.0,3.0,51,0.00,,---,0.00,VWS V14.01,2013-08-04 22:45:00,
2013-08-04 18:50:00,87.1,68.4,29.95,NE,45,1.0,4.0,54,0.00,,---,0.00,VWS V14.01,2013-08-04 22:50:00,
2013-08-04 18:55:00,87.2,66.3,29.95,ENE,68,1.0,4.0,50,0.00,,---,0.00,VWS V14.01,2013-08-04 22:55:00,
2013-08-04 19:00:00,87.1,66.2,29.95,WNW,292,1.0,4.0,50,0.00,,---,0.00,VWS V14.01,2013-08-04 23:00:00,
2013-08-04 19:05:00,86.7,66.4,29.95,ENE,68,1.0,5.0,51,0.00,,---,0.00,VWS V14.01,2013-08-04 23:05:00,
2013-08-04 19:10:00,86.4,66.2,29.96,WNW,292,1.0,5.0,51,0.00,,---,0.00,VWS V14.01,2013-08-04 23:10:00,
2013-08-04 19:15:00,86.1,65.3,29.95,NE,45,1.0,3.0,50,0.00,,---,0.00,VWS V14.01,2013-08-04 23:15:00,
2013-08-04 19:20:00,86.1,65.9,29.96,NE,45,1.0,4.0,51,0.00,,---,0.00,VWS V14.01,2013-08-04 23:20:00,
2013-08-04 19:25:00,85.4,65.8,29.96,NE,45,1.0,4.0,52,0.00,,---,0.00,VWS V14.01,2013-08-04 23:25:00,
2013-08-04 19:30:00,84.6,66.1,29.95,NNW,338,1.0,4.0,54,0.00,,---,0.00,VWS V14.01,2013-08-04 23:30:00,
2013-08-04 19:35:00,84.7,66.2,29.95,NE,45,0.0,3.0,54,0.00,,---,0.00,VWS V14.01,2013-08-04 23:35:00,
2013-08-04 19:40:00,84.9,66.9,29.95,NE,45,0.0,2.0,55,0.00,,---,0.00,VWS V14.01,2013-08-04 23:40:00,
2013-08-04 19:45:00,85.2,67.2,29.95,East,90,0.0,2.0,55,0.00,,---,0.00,VWS V14.01,2013-08-04 23:45:00,
2013-08-04 19:50:00,85.9,66.8,29.95,NE,45,0.0,1.0,53,0.00,,---,0.00,VWS V14.01,2013-08-04 23:50:00,
2013-08-04 19:55:00,85.8,66.7,29.95,NE,45,0.0,1.0,53,0.00,,---,0.00,VWS V14.01,2013-08-04 23:55:00,
2013-08-04 20:00:00,85.9,68.4,29.95,NE,45,0.0,1.0,56,0.00,,---,0.00,VWS V14.01,2013-08-05 00:00:00,
2013-08-04 20:05:00,85.4,67.4,29.95,West,270,0.0,2.0,55,0.00,,---,0.00,VWS V14.01,2013-08-05 00:05:00,
2013-08-04 20:10:00,84.5,67.6,29.96,ESE,112,0.0,2.0,57,0.00,,---,0.00,VWS V14.01,2013-08-05 00:10:00,
2013-08-04 20:15:00,83.9,66.5,29.96,ENE,68,0.0,1.0,56,0.00,,---,0.00,VWS V14.01,2013-08-05 00:15:00,
2013-08-04 20:20:00,83.1,66.3,29.96,NE,45,0.0,2.0,57,0.00,,---,0.00,VWS V14.01,2013-08-05 00:20:00,
2013-08-04 20:25:00,82.6,66.8,29.96,NE,45,0.0,1.0,59,0.00,,---,0.00,VWS V14.01,2013-08-05 00:25:00,
2013-08-04 20:30:00,82.2,66.5,29.96,WSW,248,0.0,1.0,59,0.00,,---,0.00,VWS V14.01,2013-08-05 00:30:00,
2013-08-04 20:35:00,81.9,65.7,29.96,WNW,292,0.0,1.0,58,0.00,,---,0.00,VWS V14.01,2013-08-05 00:35:00,
2013-08-04 20:40:00,81.5,65.8,29.96,NE,45,0.0,1.0,59,0.00,,---,0.00,VWS V14.01,2013-08-05 00:40:00,
2013-08-04 20:45:00,81.3,65.6,29.96,NE,45,0.0,1.0,59,0.00,,---,0.00,VWS V14.01,2013-08-05 00:45:00,
2013-08-04 20:50:00,81.4,66.2,29.96,NE,45,0.0,1.0,60,0.00,,---,0.00,VWS V14.01,2013-08-05 00:50:00,
2013-08-04 20:55:00,81.6,65.9,29.96,NE,45,0.0,0.0,59,0.00,,---,0.00,VWS V14.01,2013-08-05 00:55:00,
2013-08-04 21:00:00,80.9,65.2,29.97,West,270,0.0,1.0,59,0.00,,---,0.00,VWS V14.01,2013-08-05 01:00:00,
2013-08-04 21:05:00,80.3,66.6,29.96,WSW,248,0.0,1.0,63,0.00,,---,0.00,VWS V14.01,2013-08-05 01:05:00,
2013-08-04 21:10:00,79.9,65.7,29.97,WSW,248,0.0,1.0,62,0.00,,---,0.00,VWS V14.01,2013-08-05 01:10:00,
2013-08-04 21:15:00,79.4,66.2,29.97,WSW,248,0.0,1.0,64,0.00,,---,0.00,VWS V14.01,2013-08-05 01:15:00,
2013-08-04 21:20:00,78.7,66.0,29.97,WSW,248,0.0,0.0,65,0.00,,---,0.00,VWS V14.01,2013-08-05 01:20:00,
2013-08-04 21:25:00,78.1,65.4,29.97,SE,135,0.0,1.0,65,0.00,,---,0.00,VWS V14.01,2013-08-05 01:25:00,
2013-08-04 21:30:00,77.6,65.3,29.96,WSW,248,0.0,1.0,66,0.00,,---,0.00,VWS V14.01,2013-08-05 01:30:00,
2013-08-04 21:35:00,77.0,66.5,29.96,North,0,0.0,1.0,70,0.00,,---,0.00,VWS V14.01,2013-08-05 01:35:00,
2013-08-04 21:40:00,76.5,65.6,29.97,North,0,0.0,1.0,69,0.00,,---,0.00,VWS V14.01,2013-08-05 01:40:00,
2013-08-04 21:45:00,76.2,64.0,29.97,NNE,22,0.0,2.0,66,0.00,,---,0.00,VWS V14.01,2013-08-05 01:45:00,
2013-08-04 21:50:00,75.9,64.6,29.97,NNE,22,0.0,0.0,68,0.00,,---,0.00,VWS V14.01,2013-08-05 01:50:00,
2013-08-04 21:55:00,75.5,64.2,29.97,West,270,0.0,1.0,68,0.00,,---,0.00,VWS V14.01,2013-08-05 01:55:00,
2013-08-04 22:00:00,75.2,64.3,29.97,NNW,338,0.0,1.0,69,0.00,,---,0.00,VWS V14.01,2013-08-05 02:00:00,
2013-08-04 22:05:00,75.0,63.7,29.97,North,0,0.0,1.0,68,0.00,,---,0.00,VWS V14.01,2013-08-05 02:05:00,
2013-08-04 22:10:00,74.7,63.5,29.98,NE,45,0.0,2.0,68,0.00,,---,0.00,VWS V14.01,2013-08-05 02:10:00,
2013-08-04 22:15:00,74.7,63.5,29.98,WNW,292,0.0,2.0,68,0.00,,---,0.00,VWS V14.01,2013-08-05 02:15:00,
2013-08-04 22:20:00,74.6,63.8,29.97,NNE,22,0.0,2.0,69,0.00,,---,0.00,VWS V14.01,2013-08-05 02:20:00,
2013-08-04 22:25:00,74.5,62.8,29.97,NE,45,0.0,1.0,67,0.00,,---,0.00,VWS V14.01,2013-08-05 02:25:00,
2013-08-04 22:30:00,74.2,63.0,29.98,NE,45,0.0,2.0,68,0.00,,---,0.00,VWS V14.01,2013-08-05 02:30:00,
2013-08-04 22:35:00,73.8,64.6,29.98,NE,45,0.0,0.0,73,0.00,,---,0.00,VWS V14.01,2013-08-05 02:35:00,
2013-08-04 22:40:00,73.1,63.9,29.98,NE,45,0.0,0.0,73,0.00,,---,0.00,VWS V14.01,2013-08-05 02:40:00,
2013-08-04 22:45:00,72.6,64.6,29.99,NE,45,0.0,0.0,76,0.00,,---,0.00,VWS V14.01,2013-08-05 02:45:00,
2013-08-04 22:50:00,72.0,64.8,29.99,NE,45,0.0,0.0,78,0.00,,---,0.00,VWS V14.01,2013-08-05 02:50:00,
2013-08-04 22:55:00,71.6,64.0,29.99,NE,45,0.0,1.0,77,0.00,,---,0.00,VWS V14.01,2013-08-05 02:55:00,
2013-08-04 23:00:00,71.4,63.8,30.00,NE,45,0.0,0.0,77,0.00,,---,0.00,VWS V14.01,2013-08-05 03:00:00,
2013-08-04 23:05:00,71.1,63.9,30.00,NE,45,0.0,0.0,78,0.00,,---,0.00,VWS V14.01,2013-08-05 03:05:00,
2013-08-04 23:10:00,70.8,64.3,30.00,NE,45,0.0,0.0,80,0.00,,---,0.00,VWS V14.01,2013-08-05 03:10:00,
2013-08-04 23:15:00,70.2,63.8,30.00,NE,45,0.0,1.0,80,0.00,,---,0.00,VWS V14.01,2013-08-05 03:15:00,
2013-08-04 23:20:00,70.1,63.7,30.00,NE,45,0.0,0.0,80,0.00,,---,0.00,VWS V14.01,2013-08-05 03:20:00,
2013-08-04 23:25:00,69.8,64.4,30.00,NE,45,0.0,0.0,83,0.00,,---,0.00,VWS V14.01,2013-08-05 03:25:00,
2013-08-04 23:30:00,69.4,63.7,30.00,NE,45,0.0,0.0,82,0.00,,---,0.00,VWS V14.01,2013-08-05 03:30:00,
2013-08-04 23:35:00,69.3,64.3,30.00,NE,45,0.0,0.0,84,0.00,,---,0.00,VWS V14.01,2013-08-05 03:35:00,
2013-08-04 23:40:00,69.2,64.5,30.01,NE,45,0.0,0.0,85,0.00,,---,0.00,VWS V14.01,2013-08-05 03:40:00,
2013-08-04 23:45:00,68.8,64.4,30.01,NE,45,0.0,0.0,86,0.00,,---,0.00,VWS V14.01,2013-08-05 03:45:00,
2013-08-04 23:50:00,68.6,64.2,30.01,NE,45,0.0,0.0,86,0.00,,---,0.00,VWS V14.01,2013-08-05 03:50:00,
2013-08-04 23:55:00,68.8,63.8,30.01,North,0,0.0,1.0,84,0.00,,---,0.00,VWS V14.01,2013-08-05 03:55:00,